TimeCDT,TemperatureF,Dew PointF,Humidity,Sea Level PressureIn,VisibilityMPH,Wind Direction,Wind SpeedMPH,Gust SpeedMPH,PrecipitationIn,Events,Conditions,WindDirDegrees,DateUTC
12:53 AM,73.9,45.0,35,29.81,10.0,SSE,13.8,-,N/A,,Clear,150,2014-05-18 05:53:00
1:53 AM,73.0,45.0,37,29.81,10.0,SSE,17.3,25.3,N/A,,Clear,150,2014-05-18 06:53:00
2:53 AM,72.0,46.0,40,29.78,10.0,SSE,18.4,27.6,N/A,,Clear,150,2014-05-18 07:53:00
3:53 AM,69.1,46.9,45,29.78,10.0,SSE,16.1,-,N/A,,Clear,160,2014-05-18 08:53:00
4:53 AM,68.0,48.0,49,29.78,10.0,SSE,19.6,24.2,N/A,,Clear,160,2014-05-18 09:53:00
5:53 AM,66.0,48.9,54,29.79,10.0,South,12.7,-,N/A,,Clear,170,2014-05-18 10:53:00
6:53 AM,64.9,50.0,58,29.81,10.0,SSE,10.4,-,N/A,,Clear,150,2014-05-18 11:53:00
7:53 AM,64.9,52.0,63,29.83,10.0,SSE,15.0,-,N/A,,Clear,150,2014-05-18 12:53:00
8:53 AM,70.0,53.1,55,29.84,10.0,SSE,10.4,-,N/A,,Clear,150,2014-05-18 13:53:00
9:53 AM,75.0,54.0,48,29.85,10.0,SE,11.5,-,N/A,,Clear,140,2014-05-18 14:53:00
10:53 AM,80.1,54.0,40,29.83,10.0,SE,12.7,-,N/A,,Clear,130,2014-05-18 15:53:00
11:53 AM,89.1,51.1,27,29.80,10.0,SE,12.7,-,N/A,,Clear,130,2014-05-18 16:53:00
12:53 PM,91.9,51.1,25,29.78,10.0,SE,16.1,-,N/A,,Clear,130,2014-05-18 17:53:00
1:53 PM,98.1,26.1,8,29.74,10.0,SSE,8.1,-,N/A,,Clear,160,2014-05-18 18:53:00
2:53 PM,97.0,44.1,16,29.70,8.0,SE,25.3,43.7,N/A,,Partly Cloudy,130,2014-05-18 19:53:00
3:53 PM,95.0,46.0,19,29.70,10.0,SE,23.0,34.5,N/A,,Partly Cloudy,130,2014-05-18 20:53:00
4:53 PM,95.0,44.1,17,29.68,10.0,SE,28.8,35.7,N/A,,Scattered Clouds,140,2014-05-18 21:53:00
5:53 PM,91.9,46.9,21,29.69,10.0,SE,25.3,35.7,N/A,,Scattered Clouds,140,2014-05-18 22:53:00
6:53 PM,88.0,51.1,28,29.70,10.0,SSE,24.2,36.8,N/A,,Partly Cloudy,150,2014-05-18 23:53:00
7:53 PM,82.9,53.1,36,29.71,10.0,SSE,24.2,33.4,N/A,,Partly Cloudy,150,2014-05-19 00:53:00
8:53 PM,81.0,53.1,38,29.73,10.0,SSE,24.2,34.5,N/A,,Clear,150,2014-05-19 01:53:00
9:53 PM,79.0,52.0,39,29.75,10.0,SSE,19.6,29.9,N/A,,Clear,150,2014-05-19 02:53:00
10:53 PM,77.0,53.1,43,29.75,10.0,SSE,24.2,36.8,N/A,,Clear,150,2014-05-19 03:53:00
11:53 PM,75.0,52.0,44,29.74,10.0,SSE,28.8,39.1,N/A,,Clear,150,2014-05-19 04:53:00